Weather History for Juan Santamaria, Costa Rica

Change the Weather History Date:

Saturday, November 10, 2012

  Actual Average Record
Temperature  
Mean Temperature 74 °F -  
Max Temperature 83 °F 78 °F - ()
Min Temperature 66 °F 64 °F - ()
Cooling Degree Days 10    
Growing Degree Days 24 (Base 50)    
Moisture  
Dew Point 60 °F    
Average Humidity 62    
Maximum Humidity 78    
Minimum Humidity 37    
Precipitation  
Precipitation 0.00 in 0.13 in - ()
Sea Level Pressure  
Sea Level Pressure 29.92 in    
Wind  
Wind Speed 10 mph ()    
Max Wind Speed 17 mph    
Max Gust Speed 29 mph    
Visibility 7.9 miles    
Events      
T = Trace of Precipitation, MM = Missing Value Source: Averaged Metar Reports

Daily Weather History Graph

Daily Weather History Graph

Search for Another Location

Airport:

Trip Planner

Search our weather history database for the weather conditions in past years. The results will help you decide how hot, cold, wet, or windy it might be!

Date:

Astronomy

Nov. 10, 2012 Rise Set
Actual Time 5:29 AM CST 5:11 PM CST
Civil Twilight 5:07 AM CST 5:33 PM CST
Nautical Twilight 4:42 AM CST 5:59 PM CST
Astronomical Twilight 4:17 AM CST 6:24 PM CST
Moon 2:10 AM CST (11/10) 2:27 PM CST (11/10)
Length of Visible Light 12h 25m
Length of Day
11h 41m
Waning Crescent, 14% of the Moon is Illuminated
Nov 10
Waning Crescent
Nov 13
New
Nov 20
First Quarter
Nov 28
Full
Dec 6
Last Quarter

Hourly Weather History & Observations

Time (CST) Temp. Heat Index Dew Point Humidity Pressure Visibility Wind Dir Wind Speed Gust Speed Precip Events Conditions
12:00 AM 69 °F - 61 °F 69% 29.81 in 12 mi ESE 6.9 mph - -   Partly Cloudy
12:00 AM 68.0 °F - 60.8 °F 78% 29.97 in - ESE 6.9 mph - N/A   Clear
1:00 AM 68.0 °F - 60.8 °F 78% 29.94 in - ESE 5.8 mph - N/A   Clear
2:00 AM 68.0 °F - 59.0 °F 73% 29.92 in - East 3.5 mph - N/A   Clear
3:00 AM 67 °F - 59 °F 69% 29.81 in 12 mi ENE 13.8 mph - -   Mostly Cloudy
3:00 AM 68.0 °F - 59.0 °F 73% 29.92 in - ENE 13.8 mph - N/A   Clear
4:00 AM 68.0 °F - 59.0 °F 73% 29.93 in 6.2 mi East 16.1 mph - N/A   Mostly Cloudy
5:00 AM 69.8 °F - 59.0 °F 68% 29.91 in 6.2 mi East 17.3 mph - N/A   Mostly Cloudy
6:00 AM 70 °F - 60 °F 62% 29.81 in 12 mi East 13.8 mph - -   Scattered Clouds
6:00 AM 71.6 °F - 60.8 °F 69% 29.95 in 6.2 mi East 11.5 mph - N/A   Mostly Cloudy
7:00 AM 71.6 °F - 60.8 °F 69% 29.95 in 6.2 mi East 11.5 mph - N/A   Mostly Cloudy
8:00 AM 75.2 °F - 60.8 °F 61% 29.95 in 6.2 mi East 17.3 mph 28.8 mph N/A   Mostly Cloudy
9:00 AM 77.0 °F - 62.6 °F 61% 29.99 in 6.2 mi East 15.0 mph 26.5 mph N/A   Mostly Cloudy
10:00 AM 78.8 °F - 59.0 °F 51% 29.99 in 6.2 mi East 12.7 mph 24.2 mph N/A   Scattered Clouds
11:00 AM 80.6 °F 80.8 °F 57.2 °F 45% 29.96 in 6.2 mi East 17.3 mph - N/A   Scattered Clouds
12:00 PM 80 °F - 58 °F 37% 29.79 in 12 mi ESE 15.0 mph - -   Scattered Clouds
12:00 PM 80.6 °F 81.1 °F 59.0 °F 48% 29.95 in 6.2 mi ESE 15.0 mph - N/A   Scattered Clouds
1:00 PM 82.4 °F 82.0 °F 57.2 °F 42% 29.93 in 6.2 mi East 15.0 mph - N/A   Scattered Clouds
2:00 PM 82.4 °F 82.5 °F 59.0 °F 45% 29.92 in 6.2 mi East 11.5 mph - N/A   Scattered Clouds
3:00 PM 78 °F - 59 °F 43% 29.76 in 12 mi ENE 13.8 mph - -   Partly Cloudy
3:00 PM 78.8 °F - 59.0 °F 51% 29.92 in 6.2 mi ENE 13.8 mph - N/A   Scattered Clouds
4:00 PM 75.2 °F - 59.0 °F 57% 29.92 in 6.2 mi ENE 10.4 mph - N/A   Scattered Clouds
5:00 PM 73.4 °F - 59.0 °F 61% 29.94 in 6.2 mi East 11.5 mph - N/A   Scattered Clouds
6:00 PM 72 °F - 59 °F 55% 29.81 in 12 mi East 9.2 mph - -   Scattered Clouds
6:00 PM 71.6 °F - 59.0 °F 64% 29.96 in 6.2 mi East 9.2 mph - N/A   Partly Cloudy
7:00 PM 71.6 °F - 60.8 °F 69% 29.98 in 6.2 mi ESE 9.2 mph - N/A   Partly Cloudy
8:00 PM 71.6 °F - 60.8 °F 69% 30.00 in 6.2 mi East 11.5 mph - N/A   Partly Cloudy
9:00 PM 71 °F - - % 29.86 in 12 mi East 11.5 mph - -   Clear
9:00 PM 69.8 °F - 60.8 °F 73% 29.99 in - East 11.5 mph 23.0 mph N/A   Clear
10:00 PM 71.6 °F - 60.8 °F 69% 30.00 in - ESE 11.5 mph - N/A   Clear
11:00 PM 71.6 °F - 60.8 °F 69% 29.98 in - ESE 9.2 mph - N/A   Clear